スペースウォッチ彗星

C/2011 KP36 ( Spacewatch )

English version
Home page
Updated on March 25, 2017

---------------------------------------------------------------------

・ プロフィール

発見日 2011年5月21日
発見光度 20.4等
発見者 T. H. Bressi (Kitt Peak)

・ 写真集

・ 軌道要素

Epoch 2016 May 12.0 TT = JDT 2457520.5
T 2016 May 26.89867 TT                                  MPCW
q   4.8833021            (2000.0)            P               Q
z  +0.0260356      Peri.  180.59799     +0.99445370     +0.09830378
 +/-0.0000000      Node   173.40041     -0.09509541     +0.99227965
e   0.8728602      Incl.   18.98675     -0.04492986     +0.07561387
From 2667 observations 2011 May 21-2017 Feb. 18, mean residual 0".4.

・ 星図

・ 光度変化

        m1 = 4.0 + 5 logΔ + 10.0 log r

---------------------------------------------------------------------

軌道要素はM.P.E.C. 2017-E59に掲載されたものです。
星図はステラナビゲータ Ver.8 (アストロアーツ) で作成したものです。
光度グラフはComet for Windowsで作成したものです。

---------------------------------------------------------------------

Copyright(C) Seiichi Yoshida (comet@aerith.net). All rights reserved.